Regional Weather Roundup
Issued by NWS Northern Indiana

Home | Current Version | Previous Version | Text Only | Print | Product List | Glossary On
Versions: 1 2 3 4 5 6 7 8 9 10 11 12 13 14 15 16 17 18 19 20 21 22 23 24 25 26 27 28 29 30 31 32 33 34 35 36 37 38 39 40 41 42 43 44 45 46 47 48 49 50
000
ASUS43 KIWX 242200
RWRIWX

KIWX WEATHER ROUNDUP
NATIONAL WEATHER SERVICE NORTHERN INDIANA
500 PM EST FRI FEB 24 2017

NOTE: "FAIR" INDICATES FEW OR NO CLOUDS BELOW 12,000 FEET WITH NO
SIGNIFICANT WEATHER AND/OR OBSTRUCTIONS TO VISIBILITY.

* THESE STATIONS ARE NOT UNDER NWS QUALITY CONTROL. THEY ALSO MAY NOT
  REPORT WEATHER SUCH AS PRECIPITATION OR FOG.

INZ001>027-242300-
NORTHERN INDIANA

CITY           SKY/WX    TMP DP  RH WIND       PRES   REMARKS
GARY*          CLOUDY    41  39  93 NW8       29.47S
VALPARAISO     PTSUNNY   46  43  87 NW9       29.45R
MICHIGAN CITY* CLOUDY    39  39 100 W7        29.47R
KNOX*          CLOUDY    61  37  41 SW14      29.44R
SOUTH BEND     CLOUDY    61  58  90 SW12      29.44R
ELKHART*       LGT RAIN  57  54  88 S13       29.44R
GOSHEN         CLOUDY    64  53  67 S21G28    29.44F
ANGOLA*        CLOUDY    64  55  72 S13       29.46F
FORT WAYNE     CLOUDY    66  54  65 SW14      29.49R THUNDER

$$
INZ028>050-242300-
CENTRAL INDIANA

CITY           SKY/WX    TMP DP  RH WIND       PRES   REMARKS
LAFAYETTE      CLOUDY    61  53  75 W14G22    29.48R
KOKOMO*        LGT RAIN  65  55  70 SW17G25   29.50S
MUNCIE*        PTSUNNY   66  54  65 W8        29.51R
INDIANAPOLIS   TSTM      64  55  72 SW21G30   29.52R

$$
MIZ043>046-050>051-056>058-064>065-071>073-077>080-242300-
SOUTHWEST LOWER MICHIGAN

CITY           SKY/WX    TMP DP  RH WIND       PRES   REMARKS
BATTLE CREEK   CLOUDY    60  57  89 S9        29.43F
BENTON HARBOR  LGT RAIN  43  42  97 W18       29.44R VSB 1/4
COLDWATER*     CLOUDY    64  55  74 SE10      29.44F
HILLSDALE*     CLOUDY    63  55  77 S6        29.46F
HOLLAND        LGT RAIN  45  43  93 E7        29.40F FOG
GRAND RAPIDS   LGT RAIN  42  40  92 E7        29.42F
KALAMAZOO      TSTM      60  55  83 SW8       29.43F
STURGIS*       CLOUDY    63  55  77 S15       29.44S
THREE RIVERS*  LGT RAIN  62  55  80 S14       29.44R

$$
OHZ001>008-015>018-024>025-242300-
NORTHWEST OHIO

CITY           SKY/WX    TMP DP  RH WIND       PRES   REMARKS
DEFIANCE       CLOUDY    67  51  56 SW16G23   29.47R
FINDLAY        CLOUDY    71  51  49 S20G25    29.52S
TOLEDO EXPRESS PTSUNNY   68  54  60 S18G26    29.47F
TOLEDO METCALF LGT RAIN  70  55  59 S15       29.52R
LIMA           CLOUDY    70  54  56 S10       29.54F

$$
AND FOR LAKE MICHIGAN COASTAL AND OPEN LAKE BUOY OBSERVATIONS

STATION/POSITION TEMP    WIND        PRES    VSBY  WAVE
                 AIR SEA DIR/SP/G                  HT/PER
                 (F)     (DEG/KT/KT) (MB)    (MI)  (FT/S)
CALUMET HARBOR    38     330/  9/ 12  997.8R
MICHIGAN CITY     36     230/ 13/ 14   N/A
BURNS HARBOR      36     300/  9/ 12  999.0R
SAINT JOSEPH      42     210/  5/ 12  996.6

$$
&&



USA.gov is the U.S. government's official web portal to all federal, state and local government web resources and services.